| time (UTC) | temp F | wind direction | speed MPH | gust MPH | rain 1hr in | rain 24hr in | rain mn in | humidity % | barometer mb |
| 20260509233015 | 74 | 358 | 2.0 | 0.0 | 0.00 | 0.00 | 0.00 | 26 | 995.6 |
| 20260509231514 | 74 | 48 | 2.0 | 0.0 | 0.00 | 0.00 | 0.00 | 26 | 995.5 |
| 20260509230014 | 74 | 50 | 2.0 | 0.0 | 0.00 | 0.00 | 0.00 | 26 | 995.3 |
| 20260509224513 | 73 | 114 | 3.0 | 0.0 | 0.00 | 0.00 | 0.00 | 26 | 995.4 |
| 20260509223016 | 75 | 74 | 4.0 | 0.0 | 0.00 | 0.00 | 0.00 | 25 | 995.0 |
| 20260509221514 | 76 | 59 | 3.0 | 0.0 | 0.00 | 0.00 | 0.00 | 25 | 994.5 |
| 20260509220014 | 75 | 101 | 3.0 | 0.0 | 0.00 | 0.00 | 0.00 | 26 | 995.1 |
| 20260509214511 | 73 | 77 | 5.0 | 0.0 | 0.00 | 0.00 | 0.00 | 27 | 995.6 |
| 20260509213012 | 73 | 71 | 5.0 | 0.0 | 0.00 | 0.00 | 0.00 | 26 | 995.6 |
| 20260509211511 | 73 | 50 | 6.0 | 0.0 | 0.00 | 0.00 | 0.00 | 26 | 995.6 |
| 20260509210010 | 74 | 69 | 5.0 | 0.0 | 0.00 | 0.00 | 0.00 | 27 | 995.8 |
| 20260509204510 | 75 | 85 | 5.0 | 0.0 | 0.00 | 0.00 | 0.00 | 27 | 995.5 |
| 20260509203010 | 76 | 59 | 6.0 | 0.0 | 0.00 | 0.00 | 0.00 | 26 | 995.8 |
| 20260509201509 | 77 | 39 | 6.0 | 0.0 | 0.00 | 0.00 | 0.00 | 26 | 995.5 |
| 20260509200009 | 78 | 11 | 5.0 | 0.0 | 0.00 | 0.00 | 0.00 | 25 | 995.9 |
| 20260509194510 | 80 | 49 | 5.0 | 0.0 | 0.00 | 0.00 | 0.00 | 24 | 995.6 |
| 20260509193007 | 80 | 92 | 4.0 | 0.0 | 0.00 | 0.00 | 0.00 | 24 | 995.7 |
| 20260509191506 | 78 | 38 | 5.0 | 0.0 | 0.00 | 0.00 | 0.00 | 26 | 996.8 |
| 20260509190006 | 77 | 58 | 7.0 | 0.0 | 0.00 | 0.00 | 0.00 | 24 | 996.6 |
| 20260509184504 | 76 | 27 | 6.0 | 0.0 | 0.00 | 0.00 | 0.00 | 28 | 996.4 |
| 20260509183004 | 79 | 49 | 6.0 | 0.0 | 0.00 | 0.00 | 0.00 | 25 | 996.1 |
| 20260509181501 | 78 | 40 | 7.0 | 0.0 | 0.00 | 0.00 | 0.00 | 21 | 996.4 |
| 20260509180002 | 76 | 314 | 8.0 | 0.0 | 0.00 | 0.00 | 0.00 | 20 | 996.6 |
| 20260509174601 | 74 | 317 | 12.0 | 0.0 | 0.00 | 0.00 | 0.00 | 22 | 997.2 |
| 20260509173101 | 75 | 200 | 9.0 | 0.0 | 0.00 | 0.00 | 0.00 | 21 | 997.2 |
| 20260509171559 | 74 | 281 | 4.0 | 0.0 | 0.00 | 0.00 | 0.00 | 24 | 997.3 |
| 20260509164557 | 78 | 360 | 2.0 | 0.0 | 0.00 | 0.00 | 0.00 | 23 | 996.0 |
| 20260509163109 | 75 | 13 | 6.0 | 0.0 | 0.00 | 0.00 | 0.00 | 23 | 996.4 |
| 20260509161556 | 75 | 317 | 4.0 | 0.0 | 0.00 | 0.00 | 0.00 | 24 | 996.4 |
| 20260509160054 | 76 | 5 | 3.0 | 0.0 | 0.00 | 0.00 | 0.00 | 24 | 996.0 |
| 20260509154550 | 74 | 312 | 3.0 | 0.0 | 0.00 | 0.00 | 0.00 | 23 | 996.4 |
| 20260509153046 | 71 | 60 | 6.0 | 0.0 | 0.00 | 0.00 | 0.00 | 27 | 997.3 |
| 20260509151545 | 70 | 320 | 5.0 | 0.0 | 0.00 | 0.00 | 0.00 | 28 | 997.5 |
| 20260509150041 | 68 | 52 | 2.0 | 0.0 | 0.00 | 0.00 | 0.00 | 29 | 997.5 |
| 20260509144539 | 66 | 38 | 2.0 | 0.0 | 0.00 | 0.00 | 0.00 | 30 | 997.9 |
| 20260509143044 | 63 | 201 | 2.0 | 0.0 | 0.00 | 0.00 | 0.00 | 35 | 998.3 |
| 20260509141539 | 62 | 46 | 3.0 | 0.0 | 0.00 | 0.00 | 0.00 | 34 | 998.6 |
| 20260509140028 | 60 | 267 | 5.0 | 0.0 | 0.00 | 0.00 | 0.00 | 36 | 998.6 |
| 20260509134528 | 59 | 236 | 0.0 | 0.0 | 0.00 | 0.00 | 0.00 | 41 | 998.7 |
| 20260509133028 | 58 | 225 | 1.0 | 0.0 | 0.00 | 0.00 | 0.00 | 41 | 998.7 |
| 20260509131530 | 59 | 211 | 1.0 | 0.0 | 0.00 | 0.00 | 0.00 | 43 | 998.3 |
| 20260509130026 | 58 | 226 | 0.0 | 0.0 | 0.00 | 0.00 | 0.00 | 42 | 997.8 |
| 20260509124533 | 59 | 208 | 1.0 | 0.0 | 0.00 | 0.00 | 0.00 | 41 | 997.7 |
| 20260509123035 | 59 | 313 | 2.0 | 0.0 | 0.00 | 0.00 | 0.00 | 38 | 996.8 |
| 20260509121524 | 59 | 247 | 2.0 | 0.0 | 0.00 | 0.00 | 0.00 | 40 | 996.8 |
| 20260509120024 | 59 | 312 | 6.0 | 0.0 | 0.00 | 0.00 | 0.00 | 40 | 996.3 |
| 20260509114525 | 57 | 244 | 3.0 | 0.0 | 0.00 | 0.00 | 0.00 | 45 | 996.3 |
| 20260509113023 | 62 | 68 | 2.0 | 0.0 | 0.00 | 0.00 | 0.00 | 36 | 995.1 |
| 20260509111536 | 61 | 356 | 2.0 | 0.0 | 0.00 | 0.00 | 0.00 | 37 | 995.4 |
| 20260509110019 | 59 | 174 | 2.0 | 0.0 | 0.00 | 0.00 | 0.00 | 38 | 995.5 |
| 20260509104527 | 59 | 69 | 1.0 | 0.0 | 0.00 | 0.00 | 0.00 | 39 | 995.4 |
| 20260509103019 | 60 | 332 | 2.0 | 0.0 | 0.00 | 0.00 | 0.00 | 38 | 995.0 |
| 20260509101521 | 59 | 245 | 1.0 | 0.0 | 0.00 | 0.00 | 0.00 | 39 | 995.5 |
| 20260509100018 | 59 | 289 | 3.0 | 0.0 | 0.00 | 0.00 | 0.00 | 42 | 995.7 |
| 20260509094512 | 59 | 209 | 3.0 | 0.0 | 0.00 | 0.00 | 0.00 | 43 | 995.6 |
| 20260509093015 | 58 | 229 | 3.0 | 0.0 | 0.00 | 0.00 | 0.00 | 44 | 995.4 |
| 20260509091510 | 58 | 283 | 2.0 | 0.0 | 0.00 | 0.00 | 0.00 | 46 | 995.3 |
| 20260509090008 | 57 | 227 | 2.0 | 0.0 | 0.00 | 0.00 | 0.00 | 50 | 996.2 |
| 20260509084507 | 57 | 252 | 2.0 | 0.0 | 0.00 | 0.00 | 0.00 | 49 | 995.8 |
| 20260509083003 | 56 | 217 | 3.0 | 0.0 | 0.00 | 0.00 | 0.00 | 51 | 995.8 |
| 20260509081501 | 55 | 198 | 4.0 | 0.0 | 0.00 | 0.00 | 0.00 | 56 | 996.2 |
| 20260509074559 | 54 | 248 | 0.0 | 0.0 | 0.00 | 0.00 | 0.00 | 64 | 997.0 |
| 20260509073105 | 55 | 134 | 2.0 | 0.0 | 0.00 | 0.00 | 0.00 | 61 | 996.5 |
| 20260509071555 | 54 | 144 | 3.0 | 0.0 | 0.00 | 0.00 | 0.00 | 63 | 997.0 |
| 20260509070056 | 54 | 119 | 3.0 | 0.0 | 0.00 | 0.00 | 0.00 | 64 | 997.0 |
| 20260509064553 | 54 | 127 | 3.0 | 0.0 | 0.00 | 0.00 | 0.00 | 66 | 997.0 |
| 20260509063059 | 54 | 136 | 4.0 | 0.0 | 0.00 | 0.00 | 0.00 | 64 | 997.2 |
| 20260509061605 | 55 | 148 | 3.0 | 0.0 | 0.00 | 0.00 | 0.00 | 65 | 997.1 |
| 20260509060046 | 56 | 98 | 2.0 | 0.0 | 0.00 | 0.00 | 0.00 | 62 | 997.4 |
| 20260509054555 | 57 | 131 | 0.0 | 0.0 | 0.00 | 0.00 | 0.00 | 59 | 997.7 |
| 20260509053057 | 58 | 169 | 3.0 | 0.0 | 0.00 | 0.00 | 0.00 | 57 | 997.4 |
| 20260509051549 | 59 | 175 | 6.0 | 0.0 | 0.00 | 0.00 | 0.00 | 56 | 997.5 |
| 20260509050043 | 59 | 152 | 5.0 | 0.0 | 0.00 | 0.00 | 0.00 | 57 | 998.5 |
| 20260509044549 | 58 | 156 | 3.0 | 0.0 | 0.00 | 0.00 | 0.00 | 57 | 999.2 |
| 20260509043043 | 59 | 144 | 2.0 | 0.0 | 0.00 | 0.00 | 0.00 | 57 | 999.2 |
| 20260509041542 | 59 | 168 | 1.0 | 0.0 | 0.00 | 0.00 | 0.00 | 57 | 999.2 |
| 20260509040044 | 59 | 137 | 1.0 | 0.0 | 0.00 | 0.00 | 0.00 | 55 | 999.8 |
| 20260509034542 | 60 | 109 | 2.0 | 0.0 | 0.00 | 0.00 | 0.00 | 53 | 1000.1 |
| 20260509033041 | 61 | 137 | 2.0 | 0.0 | 0.00 | 0.00 | 0.00 | 52 | 1000.2 |
| 20260509031540 | 61 | 125 | 2.0 | 0.0 | 0.00 | 0.00 | 0.00 | 51 | 999.6 |
| 20260509030040 | 61 | 121 | 1.0 | 0.0 | 0.00 | 0.00 | 0.00 | 50 | 999.6 |
| 20260509024540 | 62 | 105 | 1.0 | 0.0 | 0.00 | 0.00 | 0.00 | 49 | 999.4 |
| 20260509023040 | 63 | 58 | 1.0 | 0.0 | 0.00 | 0.00 | 0.00 | 48 | 999.0 |
| 20260509021539 | 64 | 83 | 1.0 | 0.0 | 0.00 | 0.00 | 0.00 | 46 | 998.9 |
| 20260509020040 | 65 | 46 | 1.0 | 0.0 | 0.00 | 0.00 | 0.00 | 45 | 999.0 |
| 20260509014537 | 65 | 54 | 1.0 | 0.0 | 0.00 | 0.00 | 0.00 | 45 | 999.0 |
| 20260509013038 | 65 | 63 | 0.0 | 0.0 | 0.00 | 0.00 | 0.00 | 46 | 998.8 |
| 20260509011537 | 66 | 85 | 2.0 | 0.0 | 0.00 | 0.00 | 0.00 | 45 | 998.8 |
| 20260509010037 | 67 | 44 | 1.0 | 0.0 | 0.00 | 0.00 | 0.00 | 42 | 999.7 |
| 20260509004539 | 68 | 110 | 2.0 | 0.0 | 0.00 | 0.00 | 0.00 | 42 | 999.7 |
| 20260509003040 | 69 | 58 | 3.0 | 0.0 | 0.00 | 0.00 | 0.00 | 41 | 999.4 |
| 20260509001535 | 68 | 96 | 2.0 | 0.0 | 0.00 | 0.00 | 0.00 | 40 | 999.3 |
| 20260509000035 | 71 | 37 | 2.0 | 0.0 | 0.00 | 0.00 | 0.00 | 39 | 999.3 |
| 20260508234534 | 69 | 45 | 4.0 | 0.0 | 0.00 | 0.00 | 0.00 | 41 | 999.7 |